Time,TemperatureF,DewpointF,PressureIn,WindDirection,WindDirectionDegrees,WindSpeedMPH,WindSpeedGustMPH,Humidity,HourlyPrecipIn,Conditions,Clouds,dailyrainin,SoftwareType,DateUTC
2013-02-14 00:02:00,65.7,57.0,30.00,ENE,63,0.0,3.0,74,0.00,,,0.00,weatherlink.com 1.10,2013-02-14 05:02:00,
2013-02-14 00:17:00,65.8,57.0,29.99,NW,323,0.0,4.0,72,0.00,,,0.00,weatherlink.com 1.10,2013-02-14 05:17:00,
2013-02-14 00:32:00,65.2,56.0,29.99,SE,126,1.0,2.0,73,0.00,,,0.00,weatherlink.com 1.10,2013-02-14 05:32:00,
2013-02-14 00:47:00,65.1,57.0,29.98,NE,53,1.0,2.0,75,0.00,,,0.00,weatherlink.com 1.10,2013-02-14 05:47:00,
2013-02-14 01:02:00,64.9,57.0,29.98,East,88,0.0,2.0,75,0.00,,,0.00,weatherlink.com 1.10,2013-02-14 06:02:00,
2013-02-14 01:17:00,64.1,56.0,29.97,NNW,347,0.0,2.0,76,0.00,,,0.00,weatherlink.com 1.10,2013-02-14 06:17:00,
2013-02-14 01:32:00,63.5,57.0,29.97,NW,307,0.0,1.0,78,0.00,,,0.00,weatherlink.com 1.10,2013-02-14 06:32:00,
2013-02-14 01:47:00,63.2,57.0,29.96,North,359,0.0,1.0,80,0.00,,,0.00,weatherlink.com 1.10,2013-02-14 06:47:00,
2013-02-14 02:02:00,63.1,57.0,29.97,ESE,110,2.0,2.0,80,0.00,,,0.00,weatherlink.com 1.10,2013-02-14 07:02:00,
2013-02-14 02:17:00,62.8,56.0,29.96,East,82,0.0,1.0,79,0.00,,,0.00,weatherlink.com 1.10,2013-02-14 07:17:00,
2013-02-14 02:32:00,62.7,56.0,29.95,East,85,0.0,1.0,80,0.00,,,0.00,weatherlink.com 1.10,2013-02-14 07:32:00,
2013-02-14 02:47:00,63.3,56.0,29.95,ENE,71,0.0,1.0,78,0.00,,,0.00,weatherlink.com 1.10,2013-02-14 07:47:00,
2013-02-14 03:02:00,63.5,56.0,29.96,ENE,72,0.0,1.0,77,0.00,,,0.00,weatherlink.com 1.10,2013-02-14 08:02:00,
2013-02-14 03:17:00,63.7,56.0,29.95,NE,51,0.0,1.0,77,0.00,,,0.00,weatherlink.com 1.10,2013-02-14 08:17:00,
2013-02-14 03:32:00,64.1,56.0,29.95,East,92,0.0,2.0,76,0.00,,,0.00,weatherlink.com 1.10,2013-02-14 08:32:00,
2013-02-14 03:47:00,64.2,56.0,29.95,East,85,0.0,2.0,75,0.00,,,0.00,weatherlink.com 1.10,2013-02-14 08:47:00,
2013-02-14 04:02:00,64.2,56.0,29.94,ESE,105,0.0,2.0,75,0.00,,,0.00,weatherlink.com 1.10,2013-02-14 09:02:00,
2013-02-14 04:17:00,64.3,57.0,29.95,ENE,71,0.0,1.0,76,0.00,,,0.00,weatherlink.com 1.10,2013-02-14 09:17:00,
2013-02-14 04:33:00,64.2,57.0,29.94,ENE,71,0.0,0.0,77,0.00,,,0.00,weatherlink.com 1.10,2013-02-14 09:33:00,
2013-02-14 04:48:00,64.0,57.0,29.94,ENE,71,0.0,0.0,78,0.00,,,0.00,weatherlink.com 1.10,2013-02-14 09:48:00,
2013-02-14 05:03:00,64.1,57.0,29.94,NNE,21,0.0,0.0,79,0.00,,,0.00,weatherlink.com 1.10,2013-02-14 10:03:00,
2013-02-14 05:18:00,64.1,57.0,29.93,NNE,20,0.0,0.0,79,0.00,,,0.00,weatherlink.com 1.10,2013-02-14 10:18:00,
2013-02-14 05:33:00,63.7,57.0,29.94,East,94,0.0,1.0,79,0.00,,,0.00,weatherlink.com 1.10,2013-02-14 10:33:00,
2013-02-14 05:48:00,63.6,57.0,29.94,NE,53,1.0,2.0,79,0.00,,,0.00,weatherlink.com 1.10,2013-02-14 10:48:00,
2013-02-14 06:03:00,63.8,57.0,29.95,SE,139,0.0,1.0,79,0.00,,,0.00,weatherlink.com 1.10,2013-02-14 11:03:00,
2013-02-14 06:18:00,63.9,57.0,29.96,SE,138,0.0,0.0,79,0.00,,,0.00,weatherlink.com 1.10,2013-02-14 11:18:00,
2013-02-14 06:33:00,63.9,58.0,29.97,South,178,1.0,4.0,80,0.00,,,0.00,weatherlink.com 1.10,2013-02-14 11:33:00,
2013-02-14 06:48:00,64.2,59.0,29.97,SSE,160,0.0,3.0,82,0.00,,,0.00,weatherlink.com 1.10,2013-02-14 11:48:00,
2013-02-14 07:03:00,64.2,59.0,29.97,SSE,167,0.0,1.0,82,0.00,,,0.00,weatherlink.com 1.10,2013-02-14 12:03:00,
2013-02-14 07:33:00,64.1,59.0,29.98,NNE,29,0.0,0.0,82,0.00,,,0.00,weatherlink.com 1.10,2013-02-14 12:33:00,
2013-02-14 07:48:00,64.3,58.0,29.99,NW,304,0.0,0.0,81,0.00,,,0.00,weatherlink.com 1.10,2013-02-14 12:48:00,
2013-02-14 08:03:00,64.8,59.0,29.99,NNE,29,0.0,2.0,80,0.00,,,0.00,weatherlink.com 1.10,2013-02-14 13:03:00,
2013-02-14 08:18:00,65.5,59.0,29.99,NE,40,0.0,1.0,80,0.00,,,0.00,weatherlink.com 1.10,2013-02-14 13:18:00,
2013-02-14 08:33:00,66.2,59.0,29.99,NE,40,0.0,1.0,78,0.00,,,0.00,weatherlink.com 1.10,2013-02-14 13:33:00,
2013-02-14 08:48:00,67.3,60.0,30.00,ESE,111,0.0,1.0,77,0.00,,,0.00,weatherlink.com 1.10,2013-02-14 13:48:00,
2013-02-14 09:03:00,67.5,60.0,30.00,East,88,1.0,2.0,77,0.00,,,0.00,weatherlink.com 1.10,2013-02-14 14:03:00,
2013-02-14 09:18:00,67.0,60.0,30.01,NE,35,0.0,1.0,77,0.00,,,0.00,weatherlink.com 1.10,2013-02-14 14:18:00,
2013-02-14 09:33:00,67.2,60.0,30.01,NW,321,0.0,1.0,78,0.00,,,0.00,weatherlink.com 1.10,2013-02-14 14:33:00,
2013-02-14 09:48:00,67.5,61.0,30.02,NW,304,0.0,3.0,79,0.00,,,0.00,weatherlink.com 1.10,2013-02-14 14:48:00,
2013-02-14 10:03:00,66.8,60.0,30.02,North,359,0.0,3.0,80,0.00,,,0.00,weatherlink.com 1.10,2013-02-14 15:03:00,
2013-02-14 10:18:00,66.6,60.0,30.01,NW,308,4.0,4.0,79,0.00,,,0.00,weatherlink.com 1.10,2013-02-14 15:18:00,
2013-02-14 10:33:00,66.7,60.0,30.03,NW,321,3.0,5.0,80,0.00,,,0.00,weatherlink.com 1.10,2013-02-14 15:33:00,
2013-02-14 10:48:00,66.7,61.0,30.04,NW,317,0.0,8.0,82,0.00,,,0.00,weatherlink.com 1.10,2013-02-14 15:48:00,
2013-02-14 11:03:00,66.3,61.0,30.04,NNE,19,2.0,10.0,82,0.00,,,0.00,weatherlink.com 1.10,2013-02-14 16:03:00,
2013-02-14 11:18:00,66.1,61.0,30.03,NNW,335,3.0,11.0,82,0.00,,,0.00,weatherlink.com 1.10,2013-02-14 16:18:00,
2013-02-14 11:33:00,65.7,61.0,30.03,NNW,342,3.0,13.0,85,0.00,,,0.00,weatherlink.com 1.10,2013-02-14 16:33:00,
2013-02-14 11:48:00,64.2,61.0,30.03,NW,324,1.0,12.0,88,0.00,,,0.00,weatherlink.com 1.10,2013-02-14 16:48:00,
2013-02-14 12:03:00,63.7,60.0,30.04,NW,308,3.0,10.0,88,0.01,,,0.01,weatherlink.com 1.10,2013-02-14 17:03:00,
2013-02-14 12:18:00,62.3,60.0,30.02,NNW,340,4.0,7.0,92,0.05,,,0.05,weatherlink.com 1.10,2013-02-14 17:18:00,
2013-02-14 12:33:00,61.8,60.0,30.01,NNW,340,2.0,10.0,94,0.08,,,0.08,weatherlink.com 1.10,2013-02-14 17:33:00,
2013-02-14 12:48:00,61.4,60.0,30.03,ESE,104,5.0,10.0,95,0.10,,,0.10,weatherlink.com 1.10,2013-02-14 17:48:00,
2013-02-14 13:03:00,60.7,59.0,30.01,NW,316,3.0,9.0,95,0.32,,,0.33,weatherlink.com 1.10,2013-02-14 18:03:00,
2013-02-14 13:18:00,61.1,60.0,30.00,NNW,334,1.0,3.0,96,0.35,,,0.40,weatherlink.com 1.10,2013-02-14 18:18:00,
2013-02-14 13:33:00,61.6,61.0,29.99,North,8,0.0,4.0,96,0.36,,,0.44,weatherlink.com 1.10,2013-02-14 18:33:00,
2013-02-14 13:48:00,62.2,61.0,29.97,ENE,72,1.0,2.0,96,0.34,,,0.45,weatherlink.com 1.10,2013-02-14 18:48:00,
2013-02-14 14:03:00,62.1,61.0,29.97,NE,42,1.0,2.0,96,0.13,,,0.46,weatherlink.com 1.10,2013-02-14 19:03:00,
2013-02-14 14:18:00,62.0,61.0,29.97,NE,49,0.0,1.0,96,0.08,,,0.48,weatherlink.com 1.10,2013-02-14 19:18:00,
2013-02-14 14:33:00,62.0,61.0,29.98,NE,46,0.0,1.0,96,0.07,,,0.51,weatherlink.com 1.10,2013-02-14 19:33:00,
2013-02-14 14:48:00,62.2,61.0,29.97,NE,48,0.0,1.0,97,0.08,,,0.53,weatherlink.com 1.10,2013-02-14 19:48:00,
2013-02-14 15:03:00,62.7,62.0,29.98,NNE,18,0.0,1.0,97,0.08,,,0.54,weatherlink.com 1.10,2013-02-14 20:03:00,
2013-02-14 15:18:00,62.6,62.0,29.98,NW,311,0.0,0.0,96,0.06,,,0.54,weatherlink.com 1.10,2013-02-14 20:18:00,
2013-02-14 15:33:00,62.8,62.0,29.98,NNW,329,0.0,1.0,97,0.03,,,0.54,weatherlink.com 1.10,2013-02-14 20:33:00,
2013-02-14 15:48:00,62.6,62.0,29.96,NNE,18,0.0,1.0,97,0.01,,,0.54,weatherlink.com 1.10,2013-02-14 20:48:00,
2013-02-14 16:04:00,62.7,62.0,29.97,ENE,60,1.0,1.0,97,0.00,,,0.54,weatherlink.com 1.10,2013-02-14 21:04:00,
2013-02-14 16:18:00,62.6,62.0,29.98,East,82,0.0,1.0,97,0.00,,,0.54,weatherlink.com 1.10,2013-02-14 21:18:00,
2013-02-14 16:33:00,62.6,62.0,29.99,NNE,12,0.0,1.0,97,0.00,,,0.54,weatherlink.com 1.10,2013-02-14 21:33:00,
2013-02-14 16:48:00,62.5,62.0,29.99,NNE,13,0.0,1.0,97,0.01,,,0.55,weatherlink.com 1.10,2013-02-14 21:48:00,
2013-02-14 17:03:00,62.6,62.0,29.98,NNE,13,0.0,1.0,97,0.02,,,0.56,weatherlink.com 1.10,2013-02-14 22:03:00,
2013-02-14 17:18:00,62.6,62.0,29.98,NNE,15,0.0,1.0,97,0.03,,,0.57,weatherlink.com 1.10,2013-02-14 22:18:00,
2013-02-14 17:33:00,62.4,62.0,29.98,ENE,65,0.0,1.0,97,0.02,,,0.57,weatherlink.com 1.10,2013-02-14 22:33:00,
2013-02-14 17:48:00,62.1,61.0,29.98,East,94,1.0,2.0,97,0.02,,,0.57,weatherlink.com 1.10,2013-02-14 22:48:00,
2013-02-14 18:03:00,62.1,61.0,30.00,East,91,0.0,1.0,97,0.01,,,0.57,weatherlink.com 1.10,2013-02-14 23:03:00,
2013-02-14 18:18:00,62.0,61.0,30.01,NW,309,0.0,0.0,97,0.00,,,0.57,weatherlink.com 1.10,2013-02-14 23:18:00,
2013-02-14 18:33:00,62.1,61.0,30.01,NW,309,0.0,1.0,97,0.00,,,0.57,weatherlink.com 1.10,2013-02-14 23:33:00,
2013-02-14 18:48:00,61.4,61.0,30.02,NNW,344,1.0,2.0,97,0.00,,,0.57,weatherlink.com 1.10,2013-02-14 23:48:00,
2013-02-14 19:03:00,60.8,60.0,30.02,NNE,13,2.0,6.0,97,0.00,,,0.57,weatherlink.com 1.10,2013-02-15 00:03:00,
2013-02-14 19:19:00,60.8,60.0,30.03,NNW,341,3.0,6.0,96,0.00,,,0.57,weatherlink.com 1.10,2013-02-15 00:19:00,
2013-02-14 19:34:00,60.9,60.0,30.03,WNW,295,0.0,2.0,97,0.00,,,0.57,weatherlink.com 1.10,2013-02-15 00:34:00,
2013-02-14 19:49:00,60.9,60.0,30.00,NE,56,1.0,3.0,96,0.00,,,0.57,weatherlink.com 1.10,2013-02-15 00:49:00,
2013-02-14 20:04:00,60.7,60.0,30.00,NE,39,0.0,2.0,96,0.00,,,0.57,weatherlink.com 1.10,2013-02-15 01:04:00,
2013-02-14 20:19:00,60.6,60.0,30.04,ENE,64,0.0,1.0,96,0.00,,,0.57,weatherlink.com 1.10,2013-02-15 01:19:00,
2013-02-14 20:34:00,60.7,60.0,30.04,ENE,64,0.0,1.0,97,0.00,,,0.57,weatherlink.com 1.10,2013-02-15 01:34:00,
2013-02-14 20:49:00,60.5,60.0,30.03,ENE,75,1.0,2.0,97,0.00,,,0.57,weatherlink.com 1.10,2013-02-15 01:49:00,
2013-02-14 21:04:00,60.3,59.0,30.02,ENE,73,0.0,3.0,96,0.00,,,0.57,weatherlink.com 1.10,2013-02-15 02:04:00,
2013-02-14 21:19:00,60.2,59.0,30.02,East,96,0.0,2.0,96,0.00,,,0.57,weatherlink.com 1.10,2013-02-15 02:19:00,
2013-02-14 21:34:00,60.3,59.0,30.03,SSE,152,1.0,3.0,96,0.00,,,0.57,weatherlink.com 1.10,2013-02-15 02:34:00,
2013-02-14 21:49:00,60.4,59.0,30.02,ESE,123,0.0,2.0,96,0.00,,,0.57,weatherlink.com 1.10,2013-02-15 02:49:00,
2013-02-14 22:04:00,60.3,60.0,30.02,ENE,77,1.0,2.0,97,0.01,,,0.58,weatherlink.com 1.10,2013-02-15 03:04:00,
2013-02-14 22:19:00,60.5,60.0,30.03,South,169,0.0,3.0,97,0.01,,,0.58,weatherlink.com 1.10,2013-02-15 03:19:00,
2013-02-14 22:34:00,60.6,60.0,30.05,SW,216,0.0,1.0,97,0.01,,,0.58,weatherlink.com 1.10,2013-02-15 03:34:00,
2013-02-14 22:49:00,60.6,60.0,30.04,SW,215,0.0,1.0,97,0.01,,,0.58,weatherlink.com 1.10,2013-02-15 03:49:00,
2013-02-14 23:04:00,60.4,60.0,30.01,ESE,107,1.0,2.0,97,0.01,,,0.59,weatherlink.com 1.10,2013-02-15 04:04:00,
2013-02-14 23:19:00,60.3,60.0,30.00,ESE,110,0.0,3.0,97,0.01,,,0.59,weatherlink.com 1.10,2013-02-15 04:19:00,
2013-02-14 23:35:00,60.1,59.0,29.99,SSE,155,0.0,2.0,97,0.01,,,0.59,weatherlink.com 1.10,2013-02-15 04:35:00,
2013-02-14 23:49:00,60.0,59.0,30.00,SE,128,0.0,2.0,97,0.01,,,0.59,weatherlink.com 1.10,2013-02-15 04:49:00,